Change the Weather History Date:

Sunday, September 28, 2014

  Actual Average Record
Temperature  
Mean Temperature 80 °F 76 °F  
Max Temperature 87 °F 83 °F 88 °F (1993)
Min Temperature 72 °F 69 °F 64 °F (1956)
Degree Days  
Heating Degree Days 0 0  
Month to date heating degree days 0 0  
Since 1 July heating degree days 0 0  
Cooling Degree Days 15 11  
Month to date cooling degree days 413 308  
Year to date cooling degree days 2690 2380  
Growing Degree Days 30 (Base 50)    
Moisture  
Dew Point 71 °F    
Average Humidity 75    
Maximum Humidity 94    
Minimum Humidity 55    
Precipitation  
Precipitation 1.18 in 0.34 in 1.78 in (1986)
Month to date precipitation 3.95 9.27  
Year to date precipitation 85.06 89.21  
Snow  
Snow 0.00 in - - ()
Month to date snowfall 0.0  
Since 1 July snowfall 0.0  
Since 1 September snowfall 0.0  
Snow Depth 0.00 in    
Sea Level Pressure  
Sea Level Pressure 29.95 in    
Wind  
Wind Speed 5 mph (SW)    
Max Wind Speed 15 mph    
Max Gust Speed 18 mph    
Visibility 8 miles    
Events Rain    
T = Trace of Precipitation, MM = Missing Value Source: NWS Daily Summary

Daily Weather History Graph

Daily Weather History Graph

Search for Another Location

Airport or City:

Trip Planner

Search our weather history database for the weather conditions in past years. The results will help you decide how hot, cold, wet, or windy it might be!

Date:

Astronomy

Sep. 28, 2014 Rise Set
Actual Time 6:10 AM HST 6:10 PM HST
Civil Twilight 5:48 AM HST 6:32 PM HST
Nautical Twilight 5:22 AM HST 6:58 PM HST
Astronomical Twilight 4:57 AM HST 7:23 PM HST
Moon 10:03 AM HST (9/28) 9:36 PM HST (9/28)
Length of Visible Light 12h 44m
Length of Day
12h 00m
Waxing Crescent, 21% of the Moon is Illuminated
Sep 28
Waxing Crescent
Oct 1
First Quarter
Oct 8
Full
Oct 15
Last Quarter
Oct 23
New

Hourly Weather History & Observations

Time (HST) Temp. Heat Index Dew Point Humidity Pressure Visibility Wind Dir Wind Speed Gust Speed Precip Events Conditions
12:31 AM 73.0 °F - 71.1 °F 93% 29.97 in 2.5 mi WSW 5.8 mph - 0.19 in Rain Rain
12:39 AM 73.0 °F - 71.1 °F 93% 29.97 in 6.0 mi SW 5.8 mph - 0.22 in Rain Light Rain
12:53 AM 73.0 °F - 71.1 °F 93% 29.96 in 5.0 mi SW 4.6 mph - 0.23 in Rain Light Rain
1:20 AM 73.0 °F - 71.1 °F 93% 29.94 in 5.0 mi WSW 4.6 mph - 0.09 in Rain Rain
1:53 AM 73.0 °F - 71.1 °F 93% 29.94 in 4.0 mi SSW 4.6 mph - 0.12 in Rain Light Rain
2:05 AM 73.0 °F - 71.1 °F 93% 29.94 in 5.0 mi Calm Calm - 0.02 in Rain Light Rain
2:09 AM 73.0 °F - 71.1 °F 93% 29.95 in 2.5 mi Calm Calm - 0.03 in Rain Heavy Rain
2:18 AM 73.0 °F - 71.1 °F 93% 29.94 in 1.5 mi Calm Calm - 0.19 in Rain Heavy Rain
2:29 AM 72.0 °F - 71.1 °F 97% 29.94 in 4.0 mi Calm Calm - 0.32 in Rain Heavy Rain
2:53 AM 73.0 °F - 71.1 °F 93% 29.94 in 6.0 mi Calm Calm - 0.43 in Rain Light Rain
3:09 AM 73.0 °F - 71.1 °F 93% 29.94 in 10.0 mi West 4.6 mph - 0.00 in   Overcast
3:33 AM 73.0 °F - 71.1 °F 93% 29.94 in 5.0 mi Calm Calm - 0.01 in Rain Rain
3:53 AM 73.0 °F - 72.0 °F 96% 29.94 in 4.0 mi Calm Calm - 0.03 in Rain Rain
4:53 AM 73.0 °F - 72.0 °F 96% 29.94 in 9.0 mi SW 5.8 mph - 0.10 in Rain Light Rain
5:00 AM 73.0 °F - 72.0 °F 96% 29.94 in 8.0 mi WSW 5.8 mph - 0.01 in Rain Light Rain
5:53 AM 73.0 °F - 72.0 °F 96% 29.94 in 8.0 mi West 8.1 mph - 0.14 in Rain Rain
6:53 AM 73.9 °F - 72.0 °F 93% 29.95 in 10.0 mi SSW 6.9 mph - 0.05 in Rain Light Rain
7:01 AM 73.4 °F - 71.6 °F 94% 29.95 in 6.0 mi WSW 9.2 mph - N/A Rain Light Rain
7:11 AM 73.9 °F - 72.0 °F 93% 29.96 in 10.0 mi WSW 8.1 mph - 0.01 in Rain Light Rain
7:53 AM 75.0 °F - 73.0 °F 94% 29.97 in 10.0 mi WSW 4.6 mph - 0.02 in   Overcast
8:25 AM 75.9 °F - 73.0 °F 91% 30.00 in 5.0 mi SW 3.5 mph - N/A Rain Light Rain
8:33 AM 75.9 °F - 73.0 °F 91% 30.00 in 2.0 mi WSW 5.8 mph - 0.05 in Rain Light Rain
8:51 AM 75.2 °F - 73.4 °F 94% 30.00 in 3.0 mi West 6.9 mph - 0.08 in Rain Light Rain
8:53 AM 75.9 °F - 73.0 °F 91% 30.00 in 7.0 mi West 6.9 mph - 0.08 in Rain Light Rain
9:53 AM 80.1 °F 84.2 °F 73.0 °F 79% 29.99 in 10.0 mi SW 5.8 mph - 0.01 in   Mostly Cloudy
10:53 AM 84.0 °F 89.6 °F 72.0 °F 67% 29.97 in 10.0 mi Calm Calm - N/A   Mostly Cloudy
11:53 AM 87.1 °F 92.8 °F 71.1 °F 59% 29.95 in 10.0 mi East 12.7 mph - N/A   Mostly Cloudy
12:53 PM 84.9 °F 90.1 °F 71.1 °F 63% 29.92 in 10.0 mi North - - N/A   Mostly Cloudy
1:53 PM 82.9 °F 87.5 °F 71.1 °F 67% 29.90 in 10.0 mi SE 6.9 mph - N/A   Mostly Cloudy
2:53 PM 82.9 °F 87.5 °F 71.1 °F 67% 29.89 in 10.0 mi ESE 4.6 mph - N/A   Mostly Cloudy
3:53 PM 86.0 °F 90.1 °F 69.1 °F 57% 29.89 in 10.0 mi Calm Calm - N/A   Mostly Cloudy
4:53 PM 84.9 °F 87.6 °F 66.9 °F 55% 29.89 in 10.0 mi East 5.8 mph - N/A   Partly Cloudy
5:53 PM 80.1 °F 83.2 °F 70.0 °F 71% 29.92 in 10.0 mi East 6.9 mph - N/A   Clear
6:53 PM 78.1 °F - 71.1 °F 79% 29.93 in 10.0 mi Calm Calm - N/A   Clear
7:53 PM 75.9 °F - 71.1 °F 85% 29.95 in 10.0 mi WSW 5.8 mph - N/A   Clear
8:53 PM 75.9 °F - 71.1 °F 85% 29.97 in 10.0 mi SSW 3.5 mph - N/A   Clear
9:53 PM 75.0 °F - 69.1 °F 82% 29.97 in 10.0 mi SW 6.9 mph - N/A   Clear
10:53 PM 73.9 °F - 69.1 °F 85% 29.97 in 10.0 mi WSW 5.8 mph - N/A   Clear
11:53 PM 73.9 °F - 66.9 °F 79% 29.96 in 10.0 mi SW 5.8 mph - N/A   Partly Cloudy